STARLINK-34300, 64218

Orbit data source: Space-Track

STARLINK-34300, 64218 is a payload satellite owned by SpaceX/Seattle (US) in LEO that was launched on Sat, 31 May 2025 UTC via an FALCON 9 launch vehicle from the Air Force Western Test Range (AFWTR). Payload-class satellites include a variety of spacecraft equipped with specific instruments for various scientific and technological missions. These include communications satellites like Starlink; space stations such as the ISS; scientific satellites like the Hubble; Earth observation satellites from companies like Planet Labs, Umbra, and HawkEye 360; GPS; miniature CubeSats for education and research; and military/defense satellites.

Loading next visibility...
Identifier
64218, 2025-117R
Orbit
LEO
Country
Flag of USUS
Related business
Manufacturer
SpaceX/Seattle
Mission
Operational Commercial Communications
Bus & Motor
STARLINK V2MO, Unknown motor
Mass
575 kg wet, ~530 kg dry
Launch date (UTC)
2025-05-31 (1 year ago)
Launch vehicle
FALCON 9
Launch site
Air Force Western Test Range (AFWTR)
Object type
Payload
Rocket body
Debris
Shape & HBR
Box + 1 Pan, 17.7 m
Radar Cross Section
41.120 m², Large (>1 m²)

Expand to show TLE details & history
Last TLE update: 10 hours ago

TLE from 10 hours ago
0 STARLINK-34300
1 64218U 25117R   26235.91668981 -.00015590  00000-0 -45110-3 0  9999
2 64218  53.1602 342.4099 0001240  83.5440 331.0773 15.34407875  5869
Epoch: 2026-08-23T22:00Z
TLE epoch observation values (Epoch: 2026-08-23T22:00:01.999Z)
Latitude
40.8603°
Longitude
80.32111°
Altitude
465.709 km
Speed
7.639 km/s
True Right ascension
01h 30m 08s
True Declination
40° 40' 59"
Sunlit
Object was in daylight at epoch
Visualization orbit readout
Latitude
Unknown
Longitude
Unknown
Altitude
Unknown
Speed
Unknown
Apparent Right ascension
Unknown
Apparent Declination
Unknown
Sunlit
N/A
Visualization observer readout
Local Sidereal Time
23:04:48
Azimuth
Unknown
Elevation
Unknown
Doppler factor
Unknown
Orbital elements
Apogee altitude
463.785 km
Perigee altitude
462.088 km
Semi-major axis
6,841.074 km
Eccentricity
0.00012
Inclination
53.1602°
RAAN
342.4099°
Arg. of periapsis
83.544°
True anomaly
331.07043°
Mean anomaly
331.0773°
Eccentric anomaly
331.07386°
Mean motion
3.83581 °/min
Orbital period
93.85 mins
BSTAR
-0.0004511
Loading maneuver chart data...
Computing Atmospheric mass density...
Loading historical data...
Loading historical data...
Loading historical data...
Loading historical data...
Loading historical data...
Loading historical data...
Loading historical data...

Documentation

Showing up to 5 results
|